| time (UTC) | temp C | wind direction | speed KPH | gust KPH | rain 1hr cm | rain 24hr cm | rain mn cm | humidity % | barometer mb |
| 20260507003105 | 8 | 0 | 3.2 | 8.0 | 0.00 | 0.00 | 0.00 | 82 | 1013.7 |
| 20260507002604 | 8 | 21 | 3.2 | 8.0 | 0.00 | 0.00 | 0.00 | 82 | 1013.7 |
| 20260507002104 | 9 | 0 | 3.2 | 6.4 | 0.00 | 0.00 | 0.00 | 82 | 1013.7 |
| 20260507001605 | 9 | 355 | 3.2 | 11.3 | 0.00 | 0.00 | 0.00 | 82 | 1013.7 |
| 20260507001103 | 9 | 8 | 1.6 | 11.3 | 0.00 | 0.00 | 0.00 | 82 | 1013.6 |
| 20260506235606 | 9 | 0 | 3.2 | 8.0 | 0.00 | 0.00 | 0.00 | 81 | 1013.6 |
| 20260506235104 | 9 | 353 | 1.6 | 6.4 | 0.00 | 0.00 | 0.00 | 81 | 1013.6 |
| 20260506234104 | 10 | 338 | 4.8 | 16.1 | 0.00 | 0.00 | 0.00 | 80 | 1013.5 |
| 20260506233104 | 10 | 4 | 3.2 | 9.7 | 0.00 | 0.00 | 0.00 | 79 | 1013.5 |
| 20260506232604 | 10 | 18 | 4.8 | 14.5 | 0.00 | 0.00 | 0.00 | 79 | 1013.4 |
| 20260506231103 | 10 | 39 | 4.8 | 9.7 | 0.00 | 0.00 | 0.00 | 78 | 1013.5 |
| 20260506230603 | 10 | 30 | 4.8 | 14.5 | 0.00 | 0.00 | 0.00 | 78 | 1013.5 |
| 20260506225605 | 10 | 11 | 4.8 | 11.3 | 0.00 | 0.00 | 0.00 | 77 | 1013.3 |
| 20260506225103 | 10 | 45 | 4.8 | 9.7 | 0.00 | 0.00 | 0.00 | 77 | 1013.3 |
| 20260506224603 | 10 | 25 | 1.6 | 1.6 | 0.00 | 0.00 | 0.00 | 77 | 1013.3 |
| 20260506224104 | 10 | 30 | 3.2 | 8.0 | 0.00 | 0.00 | 0.00 | 77 | 1013.3 |
| 20260506223605 | 10 | 30 | 3.2 | 11.3 | 0.00 | 0.00 | 0.00 | 77 | 1013.3 |
| 20260506222606 | 10 | 21 | 3.2 | 8.0 | 0.00 | 0.00 | 0.00 | 77 | 1013.2 |
| 20260506222103 | 10 | 0 | 4.8 | 8.0 | 0.00 | 0.00 | 0.00 | 77 | 1013.2 |
| 20260506221604 | 10 | 11 | 3.2 | 6.4 | 0.00 | 0.00 | 0.00 | 77 | 1013.2 |
| 20260506221103 | 10 | 34 | 3.2 | 8.0 | 0.00 | 0.00 | 0.00 | 77 | 1013.2 |
| 20260506220603 | 10 | 31 | 3.2 | 8.0 | 0.00 | 0.00 | 0.00 | 77 | 1013.2 |
| 20260506220123 | 10 | 21 | 1.6 | 4.8 | 0.00 | 0.00 | 0.00 | 77 | 1013.2 |
| 20260506215602 | 10 | 21 | 3.2 | 6.4 | 0.00 | 0.00 | 0.00 | 77 | 1013.1 |
| 20260506215102 | 10 | 21 | 1.6 | 8.0 | 0.00 | 0.00 | 0.00 | 77 | 1013.1 |
| 20260506214559 | 11 | 13 | 3.2 | 8.0 | 0.00 | 0.00 | 0.00 | 77 | 1013.1 |
| 20260506213558 | 11 | 25 | 3.2 | 11.3 | 0.00 | 0.00 | 0.00 | 76 | 1012.9 |
| 20260506213057 | 11 | 14 | 4.8 | 9.7 | 0.00 | 0.00 | 0.00 | 77 | 1012.9 |
| 20260506212556 | 11 | 27 | 3.2 | 9.7 | 0.00 | 0.00 | 0.00 | 77 | 1012.9 |
| 20260506212057 | 11 | 3 | 4.8 | 9.7 | 0.00 | 0.00 | 0.00 | 77 | 1012.8 |
| 20260506211557 | 11 | 35 | 4.8 | 9.7 | 0.00 | 0.00 | 0.00 | 77 | 1012.8 |
| 20260506211055 | 11 | 35 | 6.4 | 9.7 | 0.00 | 0.00 | 0.00 | 77 | 1012.8 |
| 20260506210053 | 11 | 23 | 3.2 | 8.0 | 0.00 | 0.00 | 0.00 | 78 | 1012.7 |
| 20260506205553 | 11 | 32 | 3.2 | 8.0 | 0.00 | 0.00 | 0.00 | 78 | 1012.7 |
| 20260506205052 | 11 | 330 | 1.6 | 4.8 | 0.00 | 0.00 | 0.00 | 78 | 1012.6 |
| 20260506204551 | 11 | 312 | 3.2 | 4.8 | 0.00 | 0.00 | 0.00 | 78 | 1012.5 |
| 20260506204051 | 11 | 298 | 1.6 | 4.8 | 0.00 | 0.00 | 0.00 | 78 | 1012.5 |
| 20260506203553 | 11 | 286 | 0.0 | 6.4 | 0.00 | 0.00 | 0.00 | 78 | 1012.5 |
| 20260506203052 | 11 | 272 | 1.6 | 6.4 | 0.00 | 0.00 | 0.00 | 78 | 1012.4 |
| 20260506202045 | 11 | 52 | 0.0 | 1.6 | 0.00 | 0.00 | 0.00 | 77 | 1012.4 |
| 20260506201043 | 11 | 52 | 0.0 | 1.6 | 0.00 | 0.00 | 0.00 | 76 | 1012.4 |
| 20260506200541 | 11 | 52 | 0.0 | 1.6 | 0.00 | 0.00 | 0.00 | 76 | 1012.3 |
| 20260506200039 | 11 | 52 | 0.0 | 0.0 | 0.00 | 0.00 | 0.00 | 75 | 1012.3 |
| 20260506195038 | 11 | 52 | 0.0 | 0.0 | 0.00 | 0.00 | 0.00 | 74 | 1012.2 |
| 20260506194539 | 11 | 52 | 0.0 | 0.0 | 0.00 | 0.00 | 0.00 | 74 | 1012.2 |
| 20260506194037 | 11 | 52 | 0.0 | 0.0 | 0.00 | 0.00 | 0.00 | 73 | 1012.1 |
| 20260506192536 | 12 | 52 | 0.0 | 0.0 | 0.00 | 0.00 | 0.00 | 73 | 1011.9 |
| 20260506191533 | 12 | 52 | 0.0 | 0.0 | 0.00 | 0.00 | 0.00 | 72 | 1011.8 |
| 20260506191034 | 12 | 52 | 0.0 | 1.6 | 0.00 | 0.00 | 0.00 | 72 | 1011.7 |
| 20260506190033 | 12 | 52 | 0.0 | 0.0 | 0.00 | 0.00 | 0.00 | 71 | 1011.6 |
| 20260506185533 | 12 | 52 | 0.0 | 0.0 | 0.00 | 0.00 | 0.00 | 71 | 1011.5 |
| 20260506185032 | 12 | 52 | 0.0 | 1.6 | 0.00 | 0.00 | 0.00 | 71 | 1011.4 |
| 20260506184533 | 12 | 52 | 0.0 | 1.6 | 0.00 | 0.00 | 0.00 | 70 | 1011.3 |
| 20260506184032 | 12 | 52 | 0.0 | 0.0 | 0.00 | 0.00 | 0.00 | 70 | 1011.4 |
| 20260506183033 | 12 | 52 | 0.0 | 1.6 | 0.00 | 0.00 | 0.00 | 69 | 1011.3 |
| 20260506182533 | 12 | 52 | 0.0 | 1.6 | 0.00 | 0.00 | 0.00 | 69 | 1011.3 |
| 20260506182032 | 12 | 52 | 0.0 | 3.2 | 0.00 | 0.00 | 0.00 | 68 | 1011.2 |
| 20260506181032 | 12 | 52 | 1.6 | 3.2 | 0.00 | 0.00 | 0.00 | 68 | 1011.1 |
| 20260506180534 | 12 | 52 | 1.6 | 4.8 | 0.00 | 0.00 | 0.00 | 68 | 1011.1 |
| 20260506180034 | 12 | 52 | 1.6 | 4.8 | 0.00 | 0.00 | 0.00 | 67 | 1011.1 |
| 20260506175533 | 12 | 18 | 3.2 | 8.0 | 0.00 | 0.00 | 0.00 | 67 | 1011.0 |
| 20260506175033 | 12 | 18 | 1.6 | 8.0 | 0.00 | 0.00 | 0.00 | 66 | 1011.0 |
| 20260506174532 | 12 | 350 | 3.2 | 6.4 | 0.00 | 0.00 | 0.00 | 66 | 1010.9 |
| 20260506173532 | 13 | 63 | 1.6 | 4.8 | 0.00 | 0.00 | 0.00 | 66 | 1010.7 |
| 20260506173033 | 13 | 65 | 1.6 | 3.2 | 0.00 | 0.00 | 0.00 | 66 | 1010.6 |
| 20260506172028 | 13 | 65 | 1.6 | 3.2 | 0.00 | 0.00 | 0.00 | 66 | 1010.6 |
| 20260506171527 | 13 | 65 | 1.6 | 4.8 | 0.00 | 0.00 | 0.00 | 66 | 1010.5 |
| 20260506171023 | 13 | 65 | 1.6 | 4.8 | 0.00 | 0.00 | 0.00 | 66 | 1010.5 |
| 20260506170520 | 13 | 65 | 1.6 | 3.2 | 0.00 | 0.00 | 0.00 | 65 | 1010.4 |
| 20260506170024 | 13 | 65 | 1.6 | 6.4 | 0.00 | 0.00 | 0.00 | 65 | 1010.4 |
| 20260506165515 | 13 | 54 | 1.6 | 6.4 | 0.00 | 0.00 | 0.00 | 65 | 1010.4 |
| 20260506165013 | 13 | 110 | 3.2 | 6.4 | 0.00 | 0.00 | 0.00 | 64 | 1010.4 |
| 20260506164511 | 13 | 27 | 1.6 | 6.4 | 0.00 | 0.00 | 0.00 | 64 | 1010.5 |
| 20260506164010 | 13 | 27 | 3.2 | 6.4 | 0.00 | 0.00 | 0.00 | 63 | 1010.5 |
| 20260506163508 | 13 | 78 | 3.2 | 4.8 | 0.00 | 0.00 | 0.00 | 64 | 1010.5 |
| 20260506163010 | 13 | 80 | 3.2 | 4.8 | 0.00 | 0.00 | 0.00 | 64 | 1010.5 |
| 20260506162506 | 13 | 6 | 3.2 | 8.0 | 0.00 | 0.00 | 0.00 | 63 | 1010.5 |
| 20260506162006 | 13 | 0 | 3.2 | 8.0 | 0.00 | 0.00 | 0.00 | 62 | 1010.4 |
| 20260506161007 | 13 | 14 | 4.8 | 6.4 | 0.00 | 0.00 | 0.00 | 63 | 1010.4 |
| 20260506160010 | 13 | 94 | 4.8 | 9.7 | 0.00 | 0.00 | 0.00 | 63 | 1010.4 |
| 20260506155506 | 13 | 128 | 4.8 | 11.3 | 0.00 | 0.00 | 0.00 | 64 | 1010.4 |
| 20260506155006 | 13 | 138 | 4.8 | 11.3 | 0.00 | 0.00 | 0.00 | 64 | 1010.4 |
| 20260506154507 | 13 | 10 | 8.0 | 11.3 | 0.00 | 0.00 | 0.00 | 63 | 1010.4 |
| 20260506154007 | 13 | 82 | 3.2 | 11.3 | 0.00 | 0.00 | 0.00 | 64 | 1010.4 |
| 20260506153507 | 13 | 117 | 4.8 | 14.5 | 0.00 | 0.00 | 0.00 | 64 | 1010.4 |
| 20260506153005 | 13 | 114 | 4.8 | 14.5 | 0.00 | 0.00 | 0.00 | 64 | 1010.5 |
| 20260506152507 | 13 | 0 | 4.8 | 11.3 | 0.00 | 0.00 | 0.00 | 64 | 1010.4 |
| 20260506152004 | 13 | 113 | 6.4 | 16.1 | 0.00 | 0.00 | 0.00 | 64 | 1010.4 |
| 20260506151505 | 13 | 127 | 6.4 | 16.1 | 0.00 | 0.00 | 0.00 | 64 | 1010.5 |
| 20260506151007 | 13 | 23 | 6.4 | 16.1 | 0.00 | 0.00 | 0.00 | 63 | 1010.4 |
| 20260506150506 | 13 | 114 | 6.4 | 16.1 | 0.00 | 0.00 | 0.00 | 63 | 1010.4 |
| 20260506150008 | 13 | 31 | 4.8 | 14.5 | 0.00 | 0.00 | 0.00 | 62 | 1010.4 |
| 20260506145506 | 13 | 3 | 8.0 | 19.3 | 0.00 | 0.00 | 0.00 | 61 | 1010.4 |
| 20260506144506 | 13 | 17 | 6.4 | 11.3 | 0.00 | 0.00 | 0.00 | 61 | 1010.3 |
| 20260506144007 | 13 | 0 | 4.8 | 16.1 | 0.00 | 0.00 | 0.00 | 61 | 1010.3 |
| 20260506143505 | 13 | 31 | 8.0 | 20.9 | 0.00 | 0.00 | 0.00 | 60 | 1010.3 |
| 20260506143006 | 13 | 0 | 12.9 | 22.5 | 0.00 | 0.00 | 0.00 | 60 | 1010.4 |
| 20260506142504 | 13 | 6 | 11.3 | 22.5 | 0.00 | 0.00 | 0.00 | 60 | 1010.3 |
| 20260506142003 | 13 | 45 | 9.7 | 20.9 | 0.00 | 0.00 | 0.00 | 60 | 1010.2 |
| 20260506141507 | 13 | 18 | 8.0 | 14.5 | 0.00 | 0.00 | 0.00 | 61 | 1010.2 |
| 20260506140504 | 13 | 51 | 9.7 | 27.4 | 0.00 | 0.00 | 0.00 | 61 | 1010.3 |
| 20260506140003 | 13 | 21 | 14.5 | 27.4 | 0.00 | 0.00 | 0.00 | 61 | 1010.2 |
| 20260506135001 | 12 | 125 | 4.8 | 16.1 | 0.00 | 0.00 | 0.00 | 62 | 1010.2 |
| 20260506134504 | 12 | 20 | 8.0 | 20.9 | 0.00 | 0.00 | 0.00 | 63 | 1010.2 |
| 20260506134003 | 12 | 147 | 8.0 | 20.9 | 0.00 | 0.00 | 0.00 | 62 | 1010.2 |
| 20260506133502 | 12 | 30 | 6.4 | 16.1 | 0.00 | 0.00 | 0.00 | 62 | 1010.2 |
| 20260506133004 | 12 | 17 | 8.0 | 20.9 | 0.00 | 0.00 | 0.00 | 64 | 1010.2 |
| 20260506132502 | 13 | 13 | 6.4 | 27.4 | 0.00 | 0.00 | 0.00 | 63 | 1010.2 |
| 20260506131501 | 13 | 100 | 6.4 | 16.1 | 0.00 | 0.00 | 0.00 | 63 | 1010.2 |
| 20260506131000 | 13 | 140 | 4.8 | 30.6 | 0.00 | 0.00 | 0.00 | 63 | 1010.1 |
| 20260506130001 | 13 | 0 | 9.7 | 22.5 | 0.00 | 0.00 | 0.00 | 62 | 1010.1 |
| 20260506125001 | 13 | 320 | 8.0 | 20.9 | 0.00 | 0.00 | 0.00 | 61 | 1010.0 |
| 20260506124001 | 12 | 17 | 6.4 | 19.3 | 0.00 | 0.00 | 0.00 | 61 | 1009.9 |
| 20260506123502 | 13 | 0 | 8.0 | 19.3 | 0.00 | 0.00 | 0.00 | 61 | 1009.9 |
| 20260506123000 | 12 | 75 | 6.4 | 16.1 | 0.00 | 0.00 | 0.00 | 61 | 1010.0 |
| 20260506122501 | 12 | 0 | 8.0 | 17.7 | 0.00 | 0.00 | 0.00 | 61 | 1009.9 |
| 20260506122001 | 12 | 1 | 8.0 | 17.7 | 0.00 | 0.00 | 0.00 | 60 | 1009.9 |
| 20260506121500 | 12 | 0 | 6.4 | 22.5 | 0.00 | 0.00 | 0.00 | 61 | 1009.8 |
| 20260506120959 | 12 | 10 | 8.0 | 22.5 | 0.00 | 0.00 | 0.00 | 61 | 1009.8 |
| 20260506120502 | 12 | 21 | 9.7 | 19.3 | 0.00 | 0.00 | 0.00 | 60 | 1009.8 |
| 20260506120000 | 12 | 24 | 6.4 | 22.5 | 0.00 | 0.00 | 0.00 | 59 | 1009.8 |
| 20260506115500 | 13 | 7 | 9.7 | 22.5 | 0.00 | 0.00 | 0.00 | 60 | 1009.8 |
| 20260506115001 | 13 | 16 | 6.4 | 17.7 | 0.00 | 0.00 | 0.00 | 60 | 1009.8 |
| 20260506114001 | 13 | 31 | 11.3 | 27.4 | 0.00 | 0.00 | 0.00 | 58 | 1009.8 |
| 20260506113459 | 13 | 38 | 6.4 | 19.3 | 0.00 | 0.00 | 0.00 | 60 | 1009.7 |
| 20260506112959 | 13 | 39 | 9.7 | 19.3 | 0.00 | 0.00 | 0.00 | 61 | 1009.7 |
| 20260506112459 | 13 | 6 | 6.4 | 17.7 | 0.00 | 0.00 | 0.00 | 60 | 1009.7 |
| 20260506111959 | 13 | 6 | 8.0 | 16.1 | 0.00 | 0.00 | 0.00 | 65 | 1009.7 |
| 20260506111458 | 13 | 49 | 4.8 | 16.1 | 0.00 | 0.00 | 0.00 | 67 | 1009.6 |
| 20260506110958 | 13 | 20 | 6.4 | 16.1 | 0.00 | 0.00 | 0.00 | 68 | 1009.6 |
| 20260506110459 | 13 | 37 | 6.4 | 19.3 | 0.00 | 0.00 | 0.00 | 67 | 1009.6 |
| 20260506105958 | 13 | 18 | 6.4 | 19.3 | 0.00 | 0.00 | 0.00 | 66 | 1009.6 |
| 20260506105458 | 13 | 18 | 9.7 | 19.3 | 0.00 | 0.00 | 0.00 | 65 | 1009.6 |
| 20260506104458 | 13 | 347 | 6.4 | 19.3 | 0.00 | 0.00 | 0.00 | 64 | 1009.6 |
| 20260506103958 | 13 | 31 | 8.0 | 20.9 | 0.00 | 0.00 | 0.00 | 63 | 1009.6 |
| 20260506103457 | 13 | 61 | 11.3 | 20.9 | 0.00 | 0.00 | 0.00 | 64 | 1009.6 |
| 20260506102958 | 13 | 52 | 6.4 | 14.5 | 0.00 | 0.00 | 0.00 | 64 | 1009.6 |
| 20260506101957 | 13 | 23 | 11.3 | 24.1 | 0.00 | 0.00 | 0.00 | 62 | 1009.6 |
| 20260506100958 | 14 | 17 | 9.7 | 20.9 | 0.00 | 0.00 | 0.00 | 61 | 1009.5 |
| 20260506100457 | 14 | 0 | 8.0 | 20.9 | 0.00 | 0.00 | 0.00 | 60 | 1009.4 |
| 20260506095457 | 14 | 54 | 9.7 | 17.7 | 0.00 | 0.00 | 0.00 | 59 | 1009.3 |
| 20260506094957 | 14 | 44 | 4.8 | 17.7 | 0.00 | 0.00 | 0.00 | 61 | 1009.3 |
| 20260506094456 | 13 | 151 | 8.0 | 20.9 | 0.00 | 0.00 | 0.00 | 60 | 1009.3 |
| 20260506093956 | 13 | 39 | 6.4 | 20.9 | 0.00 | 0.00 | 0.00 | 60 | 1009.2 |
| 20260506093456 | 13 | 99 | 8.0 | 19.3 | 0.00 | 0.00 | 0.00 | 59 | 1009.3 |
| 20260506092958 | 13 | 1 | 9.7 | 19.3 | 0.00 | 0.00 | 0.00 | 59 | 1009.3 |
| 20260506092457 | 13 | 37 | 9.7 | 19.3 | 0.00 | 0.00 | 0.00 | 61 | 1009.2 |
| 20260506091455 | 13 | 0 | 9.7 | 25.7 | 0.00 | 0.00 | 0.00 | 60 | 1009.3 |
| 20260506090955 | 13 | 333 | 8.0 | 22.5 | 0.00 | 0.00 | 0.00 | 64 | 1009.2 |
| 20260506090455 | 12 | 47 | 9.7 | 22.5 | 0.00 | 0.00 | 0.00 | 61 | 1009.1 |
| 20260506085955 | 12 | 3 | 11.3 | 20.9 | 0.00 | 0.00 | 0.00 | 63 | 1009.1 |
| 20260506085456 | 13 | 14 | 11.3 | 30.6 | 0.00 | 0.00 | 0.00 | 63 | 1009.1 |
| 20260506084955 | 13 | 353 | 11.3 | 30.6 | 0.00 | 0.00 | 0.00 | 66 | 1009.0 |
| 20260506084455 | 13 | 336 | 8.0 | 22.5 | 0.00 | 0.00 | 0.00 | 66 | 1009.0 |
| 20260506083455 | 12 | 4 | 6.4 | 17.7 | 0.00 | 0.00 | 0.00 | 70 | 1009.0 |
| 20260506082955 | 12 | 35 | 6.4 | 8.0 | 0.00 | 0.00 | 0.00 | 70 | 1009.0 |
| 20260506082455 | 12 | 0 | 8.0 | 14.5 | 0.00 | 0.00 | 0.00 | 70 | 1009.0 |
| 20260506081954 | 12 | 20 | 8.0 | 14.5 | 0.00 | 0.00 | 0.00 | 71 | 1008.9 |
| 20260506081454 | 12 | 20 | 6.4 | 8.0 | 0.00 | 0.00 | 0.00 | 72 | 1008.8 |
| 20260506080954 | 12 | 20 | 6.4 | 16.1 | 0.00 | 0.00 | 0.00 | 73 | 1008.9 |
| 20260506080454 | 12 | 4 | 16.1 | 17.7 | 0.00 | 0.00 | 0.00 | 75 | 1008.8 |
| 20260506073459 | 11 | 0 | 6.4 | 17.7 | 0.00 | 0.00 | 0.00 | 81 | 1008.8 |
| 20260506072956 | 11 | 6 | 6.4 | 16.1 | 0.00 | 0.00 | 0.00 | 81 | 1008.7 |
| 20260506072453 | 11 | 10 | 4.8 | 17.7 | 0.00 | 0.00 | 0.00 | 81 | 1008.7 |
| 20260506071953 | 11 | 25 | 9.7 | 17.7 | 0.00 | 0.00 | 0.00 | 81 | 1008.7 |
| 20260506071452 | 11 | 0 | 6.4 | 20.9 | 0.00 | 0.00 | 0.00 | 81 | 1008.7 |
| 20260506070954 | 11 | 6 | 11.3 | 20.9 | 0.00 | 0.00 | 0.00 | 82 | 1008.6 |
| 20260506070453 | 11 | 30 | 3.2 | 19.3 | 0.00 | 0.00 | 0.00 | 82 | 1008.7 |
| 20260506062451 | 10 | 0 | 6.4 | 16.1 | 0.00 | 0.00 | 0.00 | 85 | 1008.5 |
| 20260506061951 | 10 | 37 | 8.0 | 16.1 | 0.00 | 0.00 | 0.00 | 85 | 1008.4 |
| 20260506061452 | 10 | 20 | 9.7 | 16.1 | 0.00 | 0.00 | 0.00 | 86 | 1008.4 |
| 20260506060952 | 10 | 319 | 4.8 | 16.1 | 0.00 | 0.00 | 0.00 | 86 | 1008.4 |
| 20260506060451 | 10 | 13 | 3.2 | 16.1 | 0.00 | 0.00 | 0.00 | 86 | 1008.4 |
| 20260506050952 | 10 | 333 | 4.8 | 17.7 | 0.00 | 0.00 | 0.00 | 89 | 1008.5 |
| 20260506050451 | 10 | 0 | 3.2 | 9.7 | 0.00 | 0.00 | 0.00 | 89 | 1008.4 |
| 20260506044449 | 9 | 320 | 4.8 | 8.0 | 0.00 | 0.00 | 0.00 | 88 | 1008.4 |
| 20260506043450 | 9 | 321 | 3.2 | 9.7 | 0.00 | 0.00 | 0.00 | 87 | 1008.5 |
| 20260506042949 | 9 | 11 | 3.2 | 9.7 | 0.00 | 0.00 | 0.00 | 87 | 1008.5 |
| 20260506042450 | 9 | 358 | 3.2 | 8.0 | 0.00 | 0.00 | 0.00 | 87 | 1008.4 |
| 20260506041949 | 9 | 7 | 3.2 | 11.3 | 0.00 | 0.00 | 0.00 | 88 | 1008.4 |
| 20260506040948 | 9 | 0 | 4.8 | 16.1 | 0.00 | 0.00 | 0.00 | 88 | 1008.4 |
| 20260506040448 | 9 | 8 | 1.6 | 16.1 | 0.00 | 0.00 | 0.00 | 88 | 1008.4 |
| 20260506035949 | 9 | 28 | 4.8 | 16.1 | 0.00 | 0.00 | 0.00 | 88 | 1008.5 |
| 20260506034947 | 9 | 14 | 3.2 | 9.7 | 0.00 | 0.00 | 0.00 | 89 | 1008.5 |
| 20260506034448 | 9 | 18 | 4.8 | 9.7 | 0.00 | 0.00 | 0.00 | 89 | 1008.5 |
| 20260506033948 | 9 | 25 | 3.2 | 6.4 | 0.00 | 0.00 | 0.00 | 90 | 1008.6 |
| 20260506033447 | 9 | 348 | 3.2 | 8.0 | 0.00 | 0.00 | 0.00 | 90 | 1008.6 |
| 20260506032948 | 9 | 355 | 3.2 | 8.0 | 0.00 | 0.00 | 0.00 | 90 | 1008.7 |
| 20260506031947 | 9 | 0 | 6.4 | 9.7 | 0.00 | 0.00 | 0.00 | 90 | 1008.7 |
| 20260506030949 | 9 | 31 | 4.8 | 11.3 | 0.00 | 0.00 | 0.00 | 91 | 1008.8 |
| 20260506030446 | 9 | 357 | 3.2 | 11.3 | 0.00 | 0.00 | 0.00 | 91 | 1008.8 |
| 20260506025947 | 9 | 37 | 6.4 | 9.7 | 0.00 | 0.00 | 0.00 | 90 | 1008.9 |
| 20260506025448 | 9 | 23 | 6.4 | 11.3 | 0.00 | 0.00 | 0.00 | 90 | 1009.0 |
| 20260506024947 | 9 | 4 | 6.4 | 14.5 | 0.00 | 0.00 | 0.00 | 90 | 1009.0 |
| 20260506024447 | 9 | 0 | 6.4 | 14.5 | 0.00 | 0.00 | 0.00 | 89 | 1009.1 |
| 20260506023946 | 9 | 35 | 6.4 | 11.3 | 0.00 | 0.00 | 0.00 | 89 | 1009.1 |
| 20260506023446 | 9 | 0 | 6.4 | 11.3 | 0.00 | 0.00 | 0.00 | 89 | 1009.1 |
| 20260506022947 | 9 | 341 | 3.2 | 9.7 | 0.00 | 0.00 | 0.00 | 89 | 1009.2 |
| 20260506022447 | 9 | 3 | 6.4 | 9.7 | 0.00 | 0.00 | 0.00 | 88 | 1009.2 |
| 20260506021446 | 9 | 35 | 4.8 | 11.3 | 0.00 | 0.00 | 0.00 | 88 | 1009.1 |
| 20260506020947 | 9 | 72 | 6.4 | 14.5 | 0.00 | 0.00 | 0.00 | 87 | 1009.2 |
| 20260506020447 | 9 | 10 | 6.4 | 16.1 | 0.00 | 0.00 | 0.00 | 87 | 1009.1 |
| 20260506015946 | 9 | 8 | 6.4 | 16.1 | 0.00 | 0.00 | 0.00 | 87 | 1009.1 |
| 20260506014945 | 10 | 30 | 6.4 | 14.5 | 0.00 | 0.00 | 0.00 | 85 | 1009.1 |
| 20260506014446 | 10 | 10 | 4.8 | 11.3 | 0.00 | 0.00 | 0.00 | 85 | 1009.1 |
| 20260506013947 | 10 | 39 | 6.4 | 11.3 | 0.00 | 0.00 | 0.00 | 85 | 1009.1 |
| 20260506013444 | 10 | 347 | 6.4 | 17.7 | 0.00 | 0.00 | 0.00 | 85 | 1009.2 |
| 20260506012943 | 10 | 7 | 8.0 | 19.3 | 0.00 | 0.00 | 0.00 | 85 | 1009.2 |
| 20260506011943 | 10 | 319 | 6.4 | 16.1 | 0.00 | 0.00 | 0.00 | 84 | 1009.2 |
| 20260506011442 | 10 | 27 | 4.8 | 16.1 | 0.00 | 0.00 | 0.00 | 84 | 1009.3 |
| 20260506010942 | 10 | 24 | 4.8 | 16.1 | 0.00 | 0.00 | 0.00 | 84 | 1009.3 |
| 20260506010443 | 10 | 21 | 6.4 | 24.1 | 0.00 | 0.00 | 0.00 | 84 | 1009.3 |
| 20260506005944 | 10 | 32 | 8.0 | 24.1 | 0.00 | 0.00 | 0.00 | 84 | 1009.4 |
| 20260506005442 | 10 | 0 | 4.8 | 20.9 | 0.00 | 0.00 | 0.00 | 84 | 1009.4 |
| 20260506004941 | 10 | 39 | 6.4 | 20.9 | 0.00 | 0.00 | 0.00 | 84 | 1009.5 |
| 20260506004441 | 10 | 0 | 3.2 | 14.5 | 0.00 | 0.00 | 0.00 | 85 | 1009.4 |
| 20260506003941 | 10 | 20 | 6.4 | 11.3 | 0.00 | 0.00 | 0.00 | 85 | 1009.5 |
| 20260506003442 | 10 | 23 | 4.8 | 11.3 | 0.00 | 0.00 | 0.00 | 85 | 1009.5 |